Hourly Data Report for October 30, 2013

All times are specified in Local Standard Time (LST). Add 1 hour to adjust for Daylight Saving Time where and when it is observed.

EMERSON AUTO
MANITOBA

49°00'00.000" N
97°14'15.000" W
242.00 m
5020881
71560
WEX

Download Data

Hourly Data (October 2013)
Hourly Data Report for October 30, 2013
Temp Definition
°C
Dew Point Temp Definition
°C
Rel Hum Definition
%
Wind Dir Definition
10's deg

Wind Spd Definition
km/h
Visibility Definition
km
Stn Press Definition
kPa
Hmdx Definition


Wind Chill Definition


Weather Definition


TIME
00:00 -5.7 -7.9 84 19 13   98.95   -11 LegendNANA
01:00 -5.2 -7.6 83 19 11   98.89   -10 LegendNANA
02:00 -4.9 -7.4 83 19 13   98.83   -10 LegendNANA
03:00 -4.8 -7.2 83 18 13   98.79   -10 LegendNANA
04:00 -5.3 -7.1 87 16 6   98.73   -8 LegendNANA
05:00 -3.7 -5.2 89 17 7   98.67   -7 LegendNANA
06:00 -1.9 -4.5 82 15 7   98.59   -5 LegendNANA
07:00 -0.6 -3.6 80 16 11   98.54   -4 LegendNANA
08:00 -0.1 -3.5 78 15 7   98.50   -3 LegendNANA
09:00 0.9 -3.1 75 19 13   98.50     LegendNANA
10:00 1.8 -2.7 72 19 15   98.42     LegendNANA
11:00 3.0 -2.8 66 16 15   98.36     LegendNANA
12:00 4.0 -2.4 63 17 17   98.30     LegendNANA
13:00 5.2 -1.9 60 18 19   98.13     LegendNANA
14:00 5.0 -1.8 61 18 15   97.99     LegendNANA
15:00 5.3 -0.9 64 18 17   97.94     LegendNANA
16:00 5.1 -0.5 67 17 17   97.87     LegendNANA
17:00 4.5 -0.2 71 17 17   97.78     LegendNANA
18:00 4.0 -0.3 74 17 20   97.72     LegendNANA
19:00 3.3 -0.4 77 18 17   97.67     LegendNANA
20:00 3.5 -0.1 77 18 15   97.63     LegendNANA
21:00 3.6 0.0 77 18 15   97.59     LegendNANA
22:00 3.6 0.2 78 18 17   97.55     LegendNANA
23:00 3.5 0.3 80 19 17   97.47     LegendNANA

Notes on Data Quality.

Legend

  • E = Estimated
  • M = Missing
  • NA = Not Available
  • ‡ = Partner data that is not subject to review by the National Climate Archives
Date modified: